TimeCDT,TemperatureF,Dew PointF,Humidity,Sea Level PressureIn,VisibilityMPH,Wind Direction,Wind SpeedMPH,Gust SpeedMPH,PrecipitationIn,Events,Conditions,WindDirDegrees,DateUTC
12:13 AM,78.8,60.8,54,29.85,10.0,SSW,4.6,-,N/A,,Clear,210,2013-07-06 05:13:00
12:33 AM,78.8,60.8,54,29.85,10.0,SSW,3.5,-,N/A,,Clear,200,2013-07-06 05:33:00
12:52 AM,78.8,60.8,54,29.85,10.0,SSW,3.5,-,N/A,,Scattered Clouds,200,2013-07-06 05:52:00
1:13 AM,77.0,62.6,61,29.85,10.0,South,3.5,-,N/A,,Clear,180,2013-07-06 06:13:00
1:33 AM,77.0,62.6,61,29.85,10.0,South,4.6,-,N/A,,Clear,170,2013-07-06 06:33:00
1:52 AM,77.0,62.6,61,29.85,10.0,SSE,4.6,-,N/A,,Clear,160,2013-07-06 06:52:00
2:13 AM,77.0,62.6,61,29.85,10.0,SSE,3.5,-,N/A,,Clear,160,2013-07-06 07:13:00
2:33 AM,75.2,62.6,65,29.85,10.0,SSE,3.5,-,N/A,,Clear,160,2013-07-06 07:33:00
2:52 AM,75.2,62.6,65,29.85,10.0,Calm,Calm,-,N/A,,Clear,0,2013-07-06 07:52:00
3:13 AM,75.2,62.6,65,29.85,10.0,South,3.5,-,N/A,,Clear,180,2013-07-06 08:13:00
3:33 AM,75.2,62.6,65,29.85,10.0,South,3.5,-,N/A,,Clear,170,2013-07-06 08:33:00
3:52 AM,75.2,62.6,65,29.85,10.0,South,4.6,-,N/A,,Clear,170,2013-07-06 08:52:00
4:13 AM,73.4,60.8,65,29.85,10.0,South,3.5,-,N/A,,Clear,180,2013-07-06 09:13:00
4:33 AM,73.4,60.8,65,29.84,10.0,South,3.5,-,N/A,,Clear,170,2013-07-06 09:33:00
4:52 AM,73.4,60.8,65,29.84,10.0,South,6.9,-,N/A,,Clear,170,2013-07-06 09:52:00
5:13 AM,73.4,60.8,65,29.85,10.0,South,4.6,-,N/A,,Clear,180,2013-07-06 10:13:00
5:33 AM,73.4,60.8,65,29.85,10.0,South,3.5,-,N/A,,Clear,170,2013-07-06 10:33:00
5:52 AM,73.4,60.8,65,29.85,10.0,South,3.5,-,N/A,,Clear,170,2013-07-06 10:52:00
6:13 AM,73.4,60.8,65,29.86,10.0,Calm,Calm,-,N/A,,Clear,0,2013-07-06 11:13:00
6:33 AM,73.4,60.8,65,29.87,10.0,South,3.5,-,N/A,,Clear,180,2013-07-06 11:33:00
6:52 AM,73.4,60.8,65,29.87,10.0,Calm,Calm,-,N/A,,Clear,0,2013-07-06 11:52:00
7:13 AM,73.4,60.8,65,29.87,10.0,Calm,Calm,-,N/A,,Scattered Clouds,0,2013-07-06 12:13:00
7:33 AM,71.6,62.6,73,29.87,10.0,Calm,Calm,-,N/A,,Scattered Clouds,0,2013-07-06 12:33:00
7:52 AM,71.6,62.6,73,29.87,10.0,South,4.6,-,N/A,,Light Drizzle,170,2013-07-06 12:52:00
8:13 AM,73.4,62.6,69,29.87,10.0,Calm,Calm,-,N/A,,Clear,0,2013-07-06 13:13:00
8:33 AM,73.4,62.6,69,29.87,10.0,Calm,Calm,-,N/A,,Light Drizzle,0,2013-07-06 13:33:00
8:52 AM,73.4,64.4,73,29.87,10.0,Calm,Calm,-,N/A,,Light Drizzle,0,2013-07-06 13:52:00
9:13 AM,71.6,64.4,78,29.86,7.0,SSE,3.5,-,N/A,Rain,Light Rain,150,2013-07-06 14:13:00
9:32 AM,71.6,66.2,83,29.86,10.0,SE,5.8,-,N/A,,Scattered Clouds,140,2013-07-06 14:32:00
9:53 AM,73.4,66.2,78,29.85,10.0,SSE,5.8,-,N/A,,Clear,160,2013-07-06 14:53:00
10:13 AM,75.2,66.2,73,29.86,10.0,SSE,5.8,-,N/A,,Clear,150,2013-07-06 15:13:00
10:32 AM,75.2,66.2,73,29.86,10.0,SE,4.6,-,N/A,,Clear,140,2013-07-06 15:32:00
10:53 AM,77.0,66.2,69,29.86,10.0,SE,5.8,-,N/A,,Clear,140,2013-07-06 15:53:00
11:13 AM,78.8,66.2,65,29.85,10.0,SSE,8.1,-,N/A,,Clear,150,2013-07-06 16:13:00
11:33 AM,78.8,66.2,65,29.84,10.0,SE,8.1,16.1,N/A,,Clear,140,2013-07-06 16:33:00
11:53 AM,80.6,66.2,61,29.85,10.0,SSE,9.2,-,N/A,,Clear,160,2013-07-06 16:53:00
12:13 PM,80.6,66.2,61,29.84,10.0,SE,8.1,-,N/A,,Clear,140,2013-07-06 17:13:00
12:33 PM,80.6,66.2,61,29.84,10.0,SSE,8.1,16.1,N/A,,Clear,150,2013-07-06 17:33:00
12:53 PM,80.6,66.2,61,29.84,10.0,SSE,9.2,-,N/A,,Clear,150,2013-07-06 17:53:00
1:13 PM,82.4,66.2,58,29.83,10.0,SSE,10.4,16.1,N/A,,Clear,150,2013-07-06 18:13:00
1:33 PM,82.4,66.2,58,29.82,10.0,SSE,6.9,-,N/A,,Clear,150,2013-07-06 18:33:00
1:53 PM,82.4,68.0,62,29.82,10.0,SSE,5.8,-,N/A,,Clear,150,2013-07-06 18:53:00
2:13 PM,82.4,66.2,58,29.82,10.0,SSE,8.1,-,N/A,,Clear,150,2013-07-06 19:13:00
2:33 PM,82.4,69.8,66,29.83,10.0,Calm,Calm,-,N/A,,Clear,0,2013-07-06 19:33:00
2:53 PM,82.4,69.8,66,29.83,10.0,SSE,3.5,-,N/A,,Clear,150,2013-07-06 19:53:00
3:12 PM,82.4,69.8,66,29.83,10.0,Calm,Calm,-,N/A,,Clear,0,2013-07-06 20:12:00
3:33 PM,82.4,69.8,66,29.83,10.0,Calm,Calm,-,N/A,,Clear,0,2013-07-06 20:33:00
3:53 PM,82.4,71.6,70,29.82,10.0,Calm,Calm,-,N/A,,Clear,0,2013-07-06 20:53:00
4:12 PM,82.4,73.4,74,29.82,10.0,Calm,Calm,-,N/A,,Clear,0,2013-07-06 21:12:00
4:33 PM,82.4,73.4,74,29.82,10.0,Calm,Calm,-,N/A,,Clear,0,2013-07-06 21:33:00
4:53 PM,84.2,73.4,70,29.82,10.0,Calm,Calm,-,N/A,,Clear,0,2013-07-06 21:53:00
5:13 PM,82.4,75.2,79,29.81,7.0,Calm,Calm,-,N/A,Rain,Light Rain,0,2013-07-06 22:13:00
5:33 PM,84.2,75.2,74,29.81,10.0,ESE,3.5,-,N/A,,Clear,110,2013-07-06 22:33:00
5:52 PM,84.2,75.2,74,29.80,10.0,Calm,Calm,-,N/A,,Clear,0,2013-07-06 22:52:00
6:13 PM,86.0,75.2,70,29.80,10.0,ESE,3.5,-,N/A,,Clear,110,2013-07-06 23:13:00
6:33 PM,84.2,75.2,74,29.80,10.0,Calm,Calm,-,N/A,,Clear,0,2013-07-06 23:33:00
6:52 PM,84.2,75.2,74,29.80,10.0,Calm,Calm,-,N/A,,Clear,0,2013-07-06 23:52:00
7:13 PM,84.2,75.2,74,29.80,10.0,Calm,Calm,-,N/A,,Clear,0,2013-07-07 00:13:00
7:33 PM,82.4,75.2,79,29.80,10.0,Calm,Calm,-,N/A,,Clear,0,2013-07-07 00:33:00
7:52 PM,82.4,77.0,84,29.80,10.0,Calm,Calm,-,N/A,,Clear,0,2013-07-07 00:52:00
8:13 PM,80.6,77.0,89,29.80,10.0,Calm,Calm,-,N/A,,Clear,0,2013-07-07 01:13:00
8:33 PM,80.6,75.2,84,29.81,10.0,Calm,Calm,-,N/A,,Clear,0,2013-07-07 01:33:00
8:52 PM,80.6,75.2,84,29.81,10.0,Calm,Calm,-,N/A,,Clear,0,2013-07-07 01:52:00
9:13 PM,80.6,73.4,79,29.81,10.0,SSE,3.5,-,N/A,,Clear,150,2013-07-07 02:13:00
9:33 PM,80.6,71.6,74,29.82,10.0,SSE,4.6,-,N/A,,Clear,150,2013-07-07 02:33:00
9:52 PM,80.6,71.6,74,29.82,10.0,Calm,Calm,-,N/A,,Clear,0,2013-07-07 02:52:00
10:13 PM,80.6,71.6,74,29.83,10.0,South,3.5,-,N/A,,Clear,170,2013-07-07 03:13:00
10:33 PM,80.6,69.8,70,29.83,10.0,Calm,Calm,-,N/A,,Clear,0,2013-07-07 03:33:00
10:52 PM,80.6,69.8,70,29.84,10.0,Calm,Calm,-,N/A,,Clear,0,2013-07-07 03:52:00
11:13 PM,80.6,69.8,70,29.84,10.0,SSE,3.5,-,N/A,,Clear,160,2013-07-07 04:13:00
11:33 PM,80.6,69.8,70,29.83,10.0,Calm,Calm,-,N/A,,Clear,0,2013-07-07 04:33:00
11:52 PM,80.6,69.8,70,29.83,10.0,Calm,Calm,-,N/A,,Clear,0,2013-07-07 04:52:00